User: anonymous   Login
Location: Palo Alto
(37.4420°N, 122.1420°W)
Time: 17:19:03
(UTC-07:00)
Language:

DIWATA 2B (PO-101) - Orbit

View from above orbital plane
View from above orbital plane
View from above satellite
View from above satellite

Ground track
Ground track

The orbit data is extracted from the following two-line orbital elements,

1 43678U 18084H   20297.73375985 -.00000139  00000-0 -81282-5 0  9997
2 43678  97.8989  56.2396 0011187 109.7750 250.4672 14.91659880108149
Epoch (UTC): 23 October 2020 17:36:36
Eccentricity: 0.0011187
inclination: 97.8989°
perigee height: 585 km
apogee height: 600 km
right ascension of ascending node: 56.2396°
argument of perigee: 109.7750°
revolutions per day: 14.91659880
mean anomaly at epoch: 250.4672°
orbit number at epoch: 10814

The dashed part of the orbit path shows where the satellite is in the earth's shadow,  

DLR